星链-2436 (STARLINK-2436 )

导读 | 豆包AI

STARLINK-2436是美国太空探索技术公司星链星座的成员,于2021年4月7日成功发射。星链项目旨在构建全球卫星互联网星座,该卫星入轨后为地面用户提供低延迟、广覆盖的宽带互联网服务,推动了全球通信网络覆盖的延伸,也是低轨巨型星座建设过程中的组成单元。

基本信息
目录编号:
48101
目录名称:
STARLINK-2436
国际标识:
2021-027K
轨道中心:
EARTH
卫星名称:
星链-2436
卫星全名:
星链-2436 (STARLINK-2436 )
卫星状态:
在轨 (已飞行1849 天)
发射日期:
2021-04-07 UTC
国别 :
美国 (US)
星等 :
--
轨道信息
数据来源 国际轨道数据 AOE轨道数据
星历时间 2026-04-30T03:44:38+0800
17小时前
查看轨道信息
2026-04-30T08:00:00+0800
13小时前
查看轨道信息
半长轴 6848.861km 6848.865km
偏心率 0.0001405 0.0000827
轨道倾角 53.161° 53.159°
近地点辐角 86.604° 58.678°
升交点赤经 277.347° 276.524°
平近点角 273.512° 199.902°
近地点 469.761km 470.161km
远地点 471.687km 471.295km
周期 94.013分钟 94.013分钟
每日圈数 15.317055 15.317043
详细信息
固有亮度:
5
最大亮度:
2.5
卫星平台:
Starlink V1.0
覆盖范围:
全球
运营商:
太空探索技术公司
运营商所在国:
美国
制造商(研发单位):
太空探索技术公司
制造商所在国:
美国
使用方式:
暂无
卫星简介
星链(Starlink)计划是由太空探索技术公司(SpaceX)提出的一个巨型低轨卫星互联网星座项目,计划在2019年至2024年间在太空搭建由约1.2万颗卫星组成的“星链”网络,其中1584颗将部署在地球上空550千米处的近地轨道,并从2020年开始工作。该卫星仍在工作。
2D轨道图
3D轨道图
轨道高度分析图
轨道倾角分析图
轨道综合分析图
查看轨道综合分析图